Theta_e
318 310 310 317 319 320 324 326 327 329 329 330 334 344 359 355 356 359 345 353 351 348 345 344 347 349 351 348 343 336 332 330 330 331 330 329 329 331 332 334 336 337 337 337 338 336 336 335 328
312 314 316 317 319 322 325 327 328 329 329 333 334 352 358 361 353 345 355 356 351 348 344 344 347 350 349 346 340 336 333 330 330 331 330 331 331 333 336 337 338 338 338 337 337 333 330 329 325
309 316 319 313 313 322 324 326 328 330 329 333 333 343 356 360 357 355 355 355 351 348 345 343 346 349 349 345 339 337 334 331 331 332 330 331 335 337 341 341 340 337 334 332 328 327 327 325 324
316 313 314 310 311 315 320 322 325 327 330 331 332 347 344 356 357 357 355 354 350 350 345 342 344 349 349 346 340 338 336 331 331 332 330 331 337 343 344 342 338 331 327 329 329 327 326 325 327
316 311 311 310 310 313 315 320 322 323 325 331 331 349 349 358 356 356 355 354 353 353 346 342 342 345 348 348 342 341 337 331 332 332 330 330 336 343 344 342 334 327 331 331 329 329 326 326 331
312 311 311 311 310 313 315 316 318 321 324 327 333 348 348 356 355 356 355 354 353 355 346 342 342 343 346 348 345 343 339 332 332 334 331 329 335 340 338 338 334 328 330 330 332 331 329 332 337
316 314 312 312 312 313 314 316 318 318 319 323 333 346 346 354 354 356 354 353 353 354 343 342 344 345 345 348 348 345 340 333 334 335 333 330 331 335 337 336 335 333 328 331 332 333 335 335 336
317 318 318 315 314 314 315 317 318 318 320 323 332 343 347 354 354 354 352 354 354 351 341 342 345 353 360 349 348 345 340 334 336 337 335 331 331 333 338 337 333 331 331 328 328 330 333 334 336
320 320 320 319 316 315 317 317 319 320 321 324 325 349 352 354 353 353 351 351 351 349 340 340 343 350 354 349 348 345 339 337 340 339 337 333 331 334 336 335 333 332 331 329 327 326 325 325 325
321 322 321 318 316 317 316 317 318 321 321 322 335 347 349 353 353 352 350 349 348 348 346 340 343 346 349 349 347 346 342 342 343 342 338 334 331 332 333 334 336 338 334 331 331 330 329 326 324
318 324 320 319 318 317 318 318 318 319 318 319 319 346 345 345 349 352 351 348 347 346 345 345 344 347 348 350 347 346 345 345 344 342 336 333 336 339 334 342 341 338 336 333 330 327 329 335 335
312 319 321 320 319 319 318 319 319 319 317 319 319 331 343 342 345 348 352 348 346 345 344 344 343 346 347 343 344 344 344 343 341 338 335 330 338 340 339 343 342 341 342 338 333 339 338 340 341
315 314 317 320 320 320 319 319 318 318 319 318 318 319 338 340 340 345 350 351 347 346 344 343 341 342 343 343 336 339 338 339 336 339 338 333 337 341 340 337 342 342 345 342 341 341 341 342 344
314 317 316 317 319 320 320 318 317 318 319 320 320 320 319 335 341 342 344 347 350 347 343 343 341 341 344 342 337 342 342 342 341 341 340 334 337 341 340 342 344 347 345 346 345 344 342 341 340
316 316 319 318 318 320 319 318 318 318 319 318 319 319 319 327 337 341 344 346 352 351 349 344 343 344 348 344 342 344 344 343 344 344 345 337 343 347 349 347 348 346 348 348 345 344 343 342 340
318 318 318 319 319 320 317 318 318 317 317 317 319 318 318 320 319 331 343 343 354 352 349 347 346 345 350 346 343 346 347 346 347 346 347 347 347 352 351 350 350 350 348 347 346 344 344 344 345
320 319 319 319 320 320 321 319 318 316 316 316 317 317 317 318 319 319 330 341 353 353 347 346 347 351 349 354 351 353 351 350 351 352 350 350 349 349 350 349 348 351 349 347 347 347 346 345 345
323 319 319 319 320 321 321 320 317 317 316 317 317 317 316 316 316 318 320 346 353 349 347 347 342 349 347 351 353 353 352 353 351 353 352 352 352 350 348 348 350 349 348 347 346 343 345 347 346
321 320 320 320 320 320 320 320 317 317 316 316 316 316 315 316 316 319 320 341 351 351 346 350 343 348 351 351 353 353 351 351 352 352 352 352 350 352 351 350 350 347 346 346 347 346 344 344 344
319 321 320 320 321 320 319 319 318 318 317 316 317 316 316 316 317 319 320 352 352 351 346 335 343 353 353 353 352 352 352 350 350 352 352 350 351 351 348 349 348 346 347 347 347 346 346 345 343
316 321 320 320 320 321 320 320 319 319 318 317 318 317 317 317 317 318 319 358 357 353 346 338 343 342 345 352 354 352 350 350 350 350 351 351 350 349 349 348 347 346 345 346 344 343 341 340 338
317 319 321 321 320 320 320 321 320 319 319 318 318 317 317 317 318 318 336 353 353 354 354 352 349 347 349 351 353 352 352 350 348 348 349 349 348 347 346 345 344 343 341 341 338 337 336 335 335
315 317 320 321 322 323 321 320 321 319 320 320 318 318 318 317 318 318 346 354 352 351 348 335 348 348 354 352 352 352 349 349 348 348 347 346 343 342 342 341 340 337 336 334 332 333 332 331 332
314 316 319 320 321 325 325 319 318 320 320 320 319 319 319 318 318 329 342 356 351 350 345 333 335 351 352 351 351 351 349 348 348 347 343 341 338 337 336 334 330 328 327 325 322 320 326 324 323
311 315 321 324 324 333 326 324 319 320 320 319 319 319 319 318 317 333 344 352 350 351 347 344 350 349 350 350 349 348 347 347 347 343 340 335 333 331 327 327 325 320 319 317 316 318 319 318 319
311 311 328 331 327 327 326 328 321 320 321 320 320 318 318 317 316 334 350 351 348 348 345 345 348 349 349 349 348 347 347 346 342 344 335 330 329 325 323 321 319 319 319 319 317 320 319 319 317
318 314 318 324 323 326 327 326 329 324 324 320 320 319 318 317 322 339 347 345 344 343 342 344 343 341 339 336 337 333 331 328 327 327 327 322 321 320 320 319 319 318 317 318 317 316 317 317 318
317 315 318 326 331 331 328 326 328 330 328 321 319 318 325 340 342 342 342 340 339 338 336 335 334 332 330 328 328 327 325 325 324 323 321 320 320 319 317 317 317 316 317 316 317 317 318 317 318
318 320 320 322 326 325 331 329 330 338 322 328 334 337 341 341 339 338 337 336 335 334 334 332 329 327 326 325 324 323 322 321 321 320 319 318 317 316 316 316 316 316 317 317 317 316 315 315 316
317 318 321 325 326 327 330 333 334 335 335 335 334 341 340 338 336 335 334 333 332 331 328 327 326 324 323 322 321 321 320 319 318 317 316 316 316 316 316 316 317 317 316 315 314 313 311 312 314
Wind_Speed
13 10 8 4 2 2 6 10 13 21 16 10 7 13 15 15 14 6 12 31 31 34 29 26 26 25 24 24 22 20 20 20 19 19 19 20 19 19 19 17 14 13 11 9 8 8 7 7 7
11 7 6 3 4 4 7 15 21 22 13 5 4 20 22 15 9 8 21 35 39 34 30 27 26 25 25 23 22 21 20 20 19 19 19 20 19 17 15 14 12 10 10 8 7 6 6 6 7
9 7 1 4 4 11 8 9 19 21 10 6 2 10 6 19 12 7 33 35 36 31 27 27 26 25 24 23 22 20 19 19 19 18 18 19 18 17 14 12 11 9 8 7 6 6 7 7 7
6 2 4 3 9 11 19 14 24 15 17 8 5 9 5 14 12 24 37 29 33 29 26 26 25 25 24 24 23 21 19 20 18 17 18 18 18 16 14 11 10 9 8 8 7 7 7 8 8
8 3 4 5 10 12 14 23 26 19 19 8 2 4 6 14 36 46 40 32 33 27 26 26 24 24 23 23 23 22 20 20 18 17 17 18 18 16 13 11 9 10 9 8 8 7 8 8 8
2 3 3 13 10 17 18 21 21 14 19 14 5 7 6 24 28 35 37 36 33 27 28 26 23 22 23 23 23 21 20 20 18 17 16 16 17 15 12 10 9 9 9 8 7 7 7 7 6
6 4 6 9 11 19 14 22 21 15 14 11 15 11 8 14 28 35 37 37 36 28 29 26 23 22 21 23 23 22 21 21 18 16 15 16 16 15 12 10 8 7 7 6 6 6 5 6 6
4 4 10 14 16 20 16 10 20 14 15 8 7 7 10 16 29 33 33 41 38 31 31 27 24 23 23 24 23 23 22 21 19 16 15 15 16 15 12 10 8 7 6 5 6 6 7 7 9
7 7 17 25 19 12 18 7 10 7 6 4 6 14 19 31 32 29 35 32 33 30 34 28 27 26 26 27 25 24 23 21 19 18 16 16 16 15 13 10 7 6 5 5 6 6 8 10 12
10 12 26 9 12 15 17 10 11 3 2 3 11 16 21 29 26 19 25 26 29 31 34 33 30 28 26 26 26 24 23 22 20 18 17 17 15 15 13 9 7 6 6 7 7 8 10 12 14
6 26 14 16 15 19 20 20 9 5 5 7 9 17 13 11 11 15 18 31 34 37 36 33 32 31 27 26 26 24 22 20 18 16 17 17 16 12 13 10 10 10 10 12 10 12 12 12 14
17 22 21 18 15 23 21 16 14 3 9 10 9 15 17 12 10 8 16 27 34 35 36 36 33 33 29 24 27 24 22 20 20 17 16 20 21 19 16 17 15 12 10 9 10 11 10 13 15
24 23 17 18 21 23 17 19 13 10 5 10 10 8 14 14 11 17 19 21 35 34 36 38 34 35 33 29 28 24 23 21 21 18 17 21 20 15 18 16 17 15 13 11 13 14 15 18 20
5 18 21 19 21 23 20 16 7 11 4 3 8 3 8 14 13 14 13 11 12 29 39 45 42 36 31 31 31 27 25 24 23 21 19 19 19 11 19 12 10 5 6 8 5 2 5 8 9
23 22 16 23 24 24 14 18 23 9 1 7 6 6 7 9 12 11 19 15 20 19 7 31 35 34 26 27 26 26 27 28 27 25 20 20 16 9 12 9 4 6 6 6 2 4 9 13 14
16 15 18 23 25 24 13 24 15 8 6 8 7 8 8 3 4 10 28 25 17 37 29 31 27 31 28 27 29 27 28 29 28 28 24 20 18 12 7 6 5 4 1 2 2 7 10 12 14
13 16 21 24 21 20 19 10 9 8 8 9 7 8 8 6 4 11 17 25 31 41 46 34 39 25 26 20 18 17 19 18 13 20 26 21 17 16 11 7 3 2 2 3 3 6 11 16 18
17 23 21 25 24 25 24 17 8 10 12 10 8 9 9 8 9 19 25 18 41 42 44 40 32 27 28 22 20 17 14 13 13 17 22 22 16 9 11 11 6 4 5 6 7 10 11 13 15
19 20 22 15 20 16 23 16 14 10 9 14 10 9 10 9 9 28 32 22 36 45 49 43 38 38 38 38 27 21 17 13 9 11 15 16 11 9 10 9 8 7 6 6 7 9 11 13 13
25 23 21 16 18 19 12 16 9 13 12 14 15 12 11 10 10 16 16 24 32 38 45 43 33 32 30 29 31 29 23 16 14 11 12 13 13 12 10 8 4 4 2 3 4 5 6 6 10
26 23 19 16 16 16 11 7 16 19 17 8 19 16 11 17 11 9 7 24 33 32 35 36 34 29 23 31 29 24 23 18 16 15 16 14 12 11 7 5 3 1 3 3 4 7 9 9 13
22 21 21 16 13 13 17 13 14 19 15 14 10 18 15 12 11 8 8 18 28 33 38 45 45 48 35 24 27 27 24 24 21 20 17 15 12 10 8 5 3 4 2 3 6 6 8 9 11
20 19 17 19 13 1 15 10 16 13 11 15 14 15 17 12 12 10 12 24 29 40 37 27 30 25 23 20 22 22 25 19 21 22 23 19 17 14 11 7 4 8 7 4 5 6 8 9 9
18 18 19 16 9 7 18 10 7 15 23 14 8 13 17 13 11 9 17 27 27 26 24 23 24 17 17 19 23 22 23 26 27 24 23 20 17 14 11 8 8 7 5 7 8 8 7 8 9
21 14 7 10 8 6 11 7 7 15 14 12 11 11 12 13 11 10 10 13 24 29 22 3 23 24 19 18 17 17 26 27 25 25 23 21 17 12 11 8 7 9 8 9 11 8 7 10 12
18 14 3 5 8 11 11 7 13 10 15 12 14 11 10 12 9 12 15 13 27 30 36 34 24 21 18 19 20 23 26 23 23 27 27 23 17 13 10 9 9 9 9 10 11 10 10 8 11
6 12 18 5 5 5 5 4 2 15 12 15 18 17 10 10 10 12 17 21 30 31 30 33 29 27 28 29 32 33 33 33 33 32 27 22 18 14 10 9 9 8 8 7 12 10 8 10 9
8 6 10 4 5 6 5 9 5 5 5 16 19 11 13 19 21 19 19 25 32 34 36 36 36 29 27 32 35 32 30 28 25 23 23 20 15 12 9 8 7 6 5 8 10 11 12 11 12
3 2 5 3 4 5 6 5 6 6 13 18 20 22 21 21 22 21 20 30 32 30 34 32 34 28 28 31 31 31 28 25 23 22 20 17 13 10 9 8 7 8 8 8 9 9 11 12 15
6 8 8 7 6 3 4 1 9 15 17 22 22 25 24 23 22 21 21 29 30 28 30 32 31 31 29 28 28 27 25 23 23 20 16 14 12 11 9 8 8 11 12 10 12 13 14 13 13
Wind_Direction
279 263 271 275 59 180 239 244 247 280 284 278 189 116 94 137 150 184 175 155 154 157 156 154 148 149 148 146 143 139 134 131 130 131 131 128 127 126 127 129 128 127 125 124 121 111 114 116 107
274 260 240 266 157 224 254 238 253 257 257 278 75 97 88 80 87 109 113 141 152 158 156 153 149 150 151 148 146 143 139 137 135 135 136 134 132 129 128 129 126 124 121 124 124 121 120 118 111
272 232 141 176 211 213 250 220 254 260 268 197 110 94 92 128 106 126 138 144 150 152 155 151 151 151 153 150 151 147 144 143 141 140 142 141 138 134 132 131 128 128 127 125 125 124 126 124 116
250 263 286 188 229 226 247 264 270 295 297 23 47 81 64 136 120 133 137 137 146 152 156 152 153 156 156 155 155 152 150 150 147 145 148 148 146 141 138 136 135 131 129 128 130 133 136 136 132
254 274 226 228 245 255 253 246 254 271 275 262 338 77 79 89 127 133 136 138 143 155 156 154 156 159 160 160 160 157 155 155 153 152 154 157 156 150 145 143 144 141 140 136 136 146 149 147 147
262 180 235 227 242 237 251 257 265 258 260 263 127 117 127 128 133 135 137 139 147 154 158 154 158 161 163 164 163 161 159 160 158 156 158 163 165 162 160 160 159 157 154 151 151 158 166 168 181
221 273 236 250 238 243 239 244 253 254 270 284 185 132 147 136 146 140 141 140 152 155 157 155 156 157 163 166 166 165 164 164 162 163 163 166 171 173 172 173 168 170 172 171 178 193 207 216 230
225 242 257 242 241 257 257 253 247 235 255 259 161 138 156 149 150 140 131 143 148 151 160 158 157 155 158 164 169 169 168 168 165 166 167 169 174 177 178 179 175 180 190 197 216 225 239 248 255
240 231 238 238 233 243 264 261 281 266 201 42 39 106 130 138 145 138 125 130 138 149 160 164 164 163 165 165 170 170 170 170 169 169 171 172 177 180 186 186 186 195 211 220 235 249 260 266 268
208 220 234 235 242 257 272 275 262 259 116 79 92 111 119 137 151 150 144 146 145 149 161 169 169 166 167 167 170 172 171 172 174 175 176 175 179 187 189 195 207 215 235 242 250 263 268 274 277
247 233 240 238 251 264 273 282 283 192 208 167 148 140 135 138 142 159 163 155 157 160 163 171 171 167 168 172 170 173 175 174 176 183 183 174 172 176 187 186 207 229 241 247 255 265 263 277 283
247 247 245 250 238 249 257 275 292 264 196 160 174 148 147 148 151 166 173 158 161 165 165 172 173 166 167 173 172 173 174 176 177 183 180 177 182 198 196 205 219 231 239 249 238 260 269 271 278
234 238 245 249 259 263 285 284 277 293 192 158 177 170 161 154 157 179 189 183 166 167 167 166 171 172 176 172 172 173 174 175 178 184 185 186 192 209 203 211 224 238 243 258 259 258 276 288 286
269 230 239 247 245 253 255 275 286 266 312 239 130 128 181 154 162 175 200 191 170 171 161 170 172 173 179 177 174 176 177 180 179 184 186 192 194 207 202 212 219 229 239 262 251 254 288 325 321
248 263 244 230 241 246 235 259 253 245 217 302 184 152 88 148 153 164 201 208 161 127 134 154 163 166 172 180 180 183 188 187 186 191 185 181 187 216 205 199 234 259 283 306 120 322 325 330 321
251 246 245 239 230 236 193 239 240 209 185 256 227 163 137 153 162 187 194 222 156 155 139 139 167 175 161 183 185 190 194 198 196 197 194 185 182 186 184 202 233 339 225 226 315 347 324 314 312
256 230 233 240 231 220 216 219 209 191 201 231 204 167 152 173 262 260 222 204 146 148 153 172 180 175 175 159 176 173 166 176 169 194 197 179 185 203 212 207 198 277 331 7 349 308 315 310 303
227 218 229 224 224 210 224 228 184 228 192 204 199 169 165 195 221 249 257 160 136 151 158 173 187 147 188 195 184 179 171 144 156 166 165 172 183 180 195 201 213 243 275 305 302 317 314 309 310
244 246 236 249 221 231 216 213 196 228 205 198 185 179 178 193 229 232 239 156 144 148 158 166 176 174 183 190 186 195 196 184 150 148 155 164 164 181 190 187 217 248 277 302 319 319 312 316 330
245 244 235 227 223 225 205 206 200 209 232 196 193 185 181 199 227 223 206 154 151 148 160 165 176 185 195 191 192 196 200 191 160 159 171 170 162 155 173 198 202 247 281 1 353 347 343 337 353
238 238 243 230 206 230 208 216 202 210 220 211 197 190 177 191 212 224 170 143 146 154 153 159 177 205 214 208 190 196 200 183 165 152 139 142 156 166 166 155 166 163 82 54 32 20 16 355 337
249 238 244 247 217 215 204 218 219 203 207 216 202 191 184 182 205 205 142 134 141 152 162 156 164 166 209 191 187 194 160 165 167 157 143 133 151 143 147 140 125 116 75 41 28 23 8 7 355
266 241 236 250 264 224 200 196 207 170 209 212 209 181 181 180 189 191 148 145 153 163 177 178 174 172 185 186 193 176 170 159 153 144 133 133 125 128 125 125 108 102 87 57 36 20 19 10 359
244 269 243 246 247 258 255 174 203 186 206 203 182 173 171 171 178 155 147 150 155 145 163 174 177 187 187 184 186 169 154 155 142 143 131 130 125 119 112 105 92 87 59 26 23 18 19 4 2
229 233 228 217 218 214 264 262 196 205 199 189 170 158 158 159 161 148 130 128 124 131 120 235 186 176 177 173 163 162 156 151 155 138 141 135 125 118 100 101 72 60 45 32 29 29 20 358 3
224 225 216 138 158 209 220 231 203 211 187 186 158 157 150 157 156 143 130 113 111 131 149 180 163 133 142 147 136 139 147 140 134 145 140 126 115 105 92 78 67 56 39 30 26 30 12 10 351
218 213 199 309 177 133 194 277 185 181 181 174 160 156 150 150 147 108 105 95 95 100 100 104 103 100 109 105 110 107 112 116 108 113 114 106 100 95 88 74 62 51 34 25 11 9 359 1 3
221 180 192 191 183 156 160 203 206 155 216 164 147 127 113 92 94 95 94 93 90 97 103 98 98 91 94 98 102 104 102 105 106 108 103 102 96 90 80 68 59 49 47 21 17 13 5 5 2
166 181 241 17 264 160 151 218 125 80 141 123 110 104 100 100 98 97 98 98 101 102 101 97 93 91 86 94 99 99 99 99 98 94 92 93 95 89 81 66 54 47 46 39 58 49 8 1 8
194 215 185 181 260 290 141 266 332 102 92 102 106 103 104 103 104 102 103 103 102 100 96 93 95 94 98 99 97 97 99 98 94 92 95 94 89 80 72 65 59 82 72 44 25 6 354 354 1